EST,Max TemperatureF,Mean TemperatureF,Min TemperatureF,Max Dew PointF,MeanDew PointF,Min DewpointF,Max Humidity, Mean Humidity, Min Humidity, Max Sea Level PressureIn, Mean Sea Level PressureIn, Min Sea Level PressureIn, Max VisibilityMiles, Mean VisibilityMiles, Min VisibilityMiles, Max Wind SpeedMPH, Mean Wind SpeedMPH, Max Gust SpeedMPH,PrecipitationIn, CloudCover, Events, WindDirDegrees
2012-11-1,44,44,36,40,37,34,97,79,59,29.65,29.62,29.60,10,10,10,14,4,20,0.00,4,,254
2012-11-2,41,48,43,40,36,33,85,66,47,29.79,29.68,29.65,10,10,10,20,9,25,0.00,5,,279
2012-11-3,39,44,39,32,29,27,70,56,44,29.97,29.87,29.80,10,10,10,18,12,31,0.00,5,,300
2012-11-4,48,39,30,31,29,27,85,63,48,30.01,29.98,29.95,10,10,10,13,7,16,0.00,3,,294
2012-11-5,27,36,28,30,25,21,78,57,46,30.17,30.05,29.98,10,10,10,12,5,21,0.00,4,,323
2012-11-6,39,36,27,27,22,19,78,57,40,30.22,30.15,30.04,10,10,10,10,4,,0.00,2,,25
2012-11-7,33,38,33,34,32,28,100,81,61,30.01,29.86,29.78,,,,12,8,24,0.00,7,Rain-Snow,10
2012-11-8,37,38,32,33,28,21,100,72,39,29.92,29.81,29.76,,,,17,7,29,0.00,5,Snow,309
2012-11-9,28,40,30,31,27,24,96,67,36,30.21,30.08,29.94,,,,16,7,21,0.00,0,,298
2012-11-10,37,42,28,42,34,27,96,80,50,30.42,30.32,30.22,,,,7,1,,0.00,3,,266
2012-11-11,46,51,33,51,43,32,100,85,42,30.48,30.45,30.41,,,,9,2,,0.00,3,,166
2012-11-12,61,54,39,58,52,39,100,85,58,30.47,30.37,30.20,,,,16,5,23,0.00,4,,169
2012-11-13,35,49,34,59,44,29,96,86,70,30.43,30.29,30.12,,,,13,8,20,0.00,5,Rain,300
2012-11-14,37,38,28,31,29,26,96,75,50,30.50,30.46,30.43,,,,10,2,,0.00,2,,8
2012-11-15,36,38,32,32,29,26,92,72,57,30.45,30.37,30.29,,,,7,3,,0.00,3,,21
2012-11-16,33,38,27,31,28,23,92,71,46,30.41,30.33,30.27,,,,6,3,,0.00,1,,346
2012-11-17,30,40,28,35,30,25,96,70,46,30.61,30.55,30.42,,,,10,4,,0.00,0,,30
2012-11-18,43,40,30,40,37,29,96,75,66,30.63,30.60,30.53,,,,13,5,20,0.00,6,,41
2012-11-19,46,46,42,41,39,37,85,76,62,30.52,30.39,30.24,,,,9,5,17,0.00,6,,44
2012-11-20,37,42,30,40,35,27,96,73,39,30.23,30.16,30.10,,,,8,4,,0.00,1,,23
2012-11-21,27,40,28,38,32,25,93,75,34,30.22,30.17,30.12,,,,8,3,,0.00,0,,17
2012-11-22,28,40,26,43,33,24,96,82,55,30.26,30.20,30.15,,,,9,2,,0.00,2,,40
2012-11-23,46,44,28,44,37,27,100,86,48,30.13,29.95,29.72,,,,8,1,,0.00,5,Rain,217
2012-11-24,36,41,36,43,24,20,86,53,40,29.88,29.78,29.70,,,,22,12,32,0.00,5,,291
2012-11-25,42,34,26,22,21,18,78,58,41,29.99,29.94,29.89,,,,18,9,26,0.00,2,,268
2012-11-26,27,34,19,27,22,18,92,68,33,30.25,30.13,29.99,,,,14,3,21,0.00,0,,285
2012-11-27,39,33,27,38,34,23,100,91,73,30.28,30.21,30.16,,,,8,3,,0.00,8,Rain,15
2012-11-28,30,34,26,34,28,21,100,81,45,30.32,30.22,30.17,,,,15,5,24,0.00,4,,301
2012-11-29,24,34,21,25,23,19,92,70,40,30.39,30.34,30.31,,,,13,5,23,0.00,0,,269
2012-11-30,42,34,21,39,29,19,96,79,39,30.40,30.36,30.33,,,,9,1,,0.00,2,,89